Погода в Панькове

Россия / Костромская область     57°43′18″N   43°14′34″E
темп.,
°C
ветер,
м/с
пор.,
м/с
влажн.,
%
обл.,
%
осадки,
мм/ч
давл.,
гПа
погр.,
м
12 мая, ср
ср1200:00+10в22825 0.0 102925
03:00+9св11933 0.0 102910
06:00+12всв24820 0.0 1029122
09:00+18всв24610 0.0 1028501
12:00+23всв35472 0.0 10271007
15:00+24в46435 0.0 10251907
18:00+22в375852 0.0 1024300
21:00+18в377548 0.0 1024163
13 мая, чт
чт1300:00+14юв248071 0.0 102465
03:00+14в257864 0.0 1024120
06:00+15вюв297822 0.0 1024258
09:00+19юв386498 0.0 1023601
12:00+21юв37597 0.0 1022941
15:00+24вюв584380 0.0 10192048
18:00+19ююв51067100 0.1 1019906
21:00+16юв4128890 0.6 1018803
14 мая, пт
пт1400:00+14ююв3109794 1.3 1017473
03:00+13ю279965 1.3 1018235
06:00+13юз2496100 0.0 1019267
09:00+17ююз247777 0.0 1019546
12:00+20ю4658100 0.0 10191179
15:00+22ю355527 0.0 10191343
18:00+21ю146597 0.0 1017588
21:00+16вюв228386 0.1 101718
15 мая, сб
сб1500:00+14ю2797100 2.7 1016144
03:00+15вюв2697100 2.9 1015120
06:00+16ююв399588 0.0 1014275
09:00+21ю4773100 0.0 1014506
12:00+25ю585694 0.0 10121134
15:00+26ю5104720 0.0 10111469
18:00+23ю49621 0.0 1010812
21:00+17ю413899 1.6 1011381
16 мая, вс
вс1600:00+15ю3129292 0.0 1011276
03:00+14ю299645 0.0 1011197
06:00+16ююз399329 0.0 1011275
09:00+21юз48632 0.0 1011992
12:00+23юз5847100 0.0 10121619
15:00+23юз584626 0.0 10111827
18:00+21зюз37590 0.0 10121230
21:00+15юз24830 0.0 101358